Showing default

FLOCK 4BE 1, 60518

Orbit data source: Space-Track

FLOCK 4BE 1, 60518 is a payload satellite owned by Planet (US) in SSO that was launched on Fri, 16 Aug 2024 UTC via an FALCON 9 launch vehicle from the Air Force Western Test Range (AFWTR). Payload-class satellites include a variety of spacecraft equipped with specific instruments for various scientific and technological missions. These include communications satellites like Starlink; space stations such as the ISS; scientific satellites like the Hubble; Earth observation satellites from companies like Planet Labs, Umbra, and HawkEye 360; GPS; miniature CubeSats for education and research; and military/defense satellites.

Loading next visibility...
Identifier
60518, 2024-149BC
Orbit
SSO
Country
Flag of USUS
Related business
Manufacturer
Planet
Mission
Operational Commercial Imaging
Bus & Motor
CUBESAT 3U, Unknown motor
Mass
5.7 kg wet, 5.7 kg dry
Launch date (UTC)
2024-08-16 (2 years ago)
Launch vehicle
FALCON 9
Launch site
Air Force Western Test Range (AFWTR)
Object type
Payload
Rocket body
Debris
Shape & HBR
Box + 2 Pan, 1.0 m
Radar Cross Section
0.072 m², Medium (>0.1 m² and < 1m²)

Expand to show TLE details & history
Last TLE update: 7 hours ago

TLE from 7 hours ago
0 FLOCK 4BE 1
1 60518U 24149BC  26126.77826642  .00015206  00000-0  36729-3 0  9993
2 60518  97.3775 211.3597 0005365  93.3785 266.8075 15.41256363 95994
Epoch: 2026-05-06T18:40Z
TLE epoch observation values (Epoch: 2026-05-06T18:40:42.218Z)
Latitude
-0.00009°
Longitude
66.54993°
Altitude
445.726 km
Speed
7.645 km/s
True Right ascension
14h 05m 26s
True Declination
0° 00' 00"
Sunlit
Object was in full shadow at epoch
Visualization orbit readout
Latitude
Unknown
Longitude
Unknown
Altitude
Unknown
Speed
Unknown
Apparent Right ascension
Unknown
Apparent Declination
Unknown
Sunlit
N/A
Visualization observer readout
Local Sidereal Time
09:27:34
Azimuth
Unknown
Elevation
Unknown
Doppler factor
Unknown
Orbital elements
Apogee altitude
442.994 km
Perigee altitude
435.679 km
Semi-major axis
6,817.474 km
Eccentricity
0.00054
Inclination
97.3775°
RAAN
211.3597°
Arg. of periapsis
93.3785°
True anomaly
266.74612°
Mean anomaly
266.8075°
Eccentric anomaly
266.77681°
Mean motion
3.85574 °/min
Orbital period
93.37 mins
BSTAR
0.00036729
Loading maneuver chart data...
Computing Atmospheric mass density...
Loading historical data...
Loading historical data...
Loading historical data...
Loading historical data...
Loading historical data...
Loading historical data...
Loading historical data...

Documentation

Showing up to 5 results
|